[[{"header":{"parameterUnit":"m.s-1","parameterCategory":1,"la1":30.2991,"la2":30.254,"lo1":-89.0895,"lo2":-89.0444,"dy":0.0017,"dx":0.0017,"nx":28,"ny":28,"refTime":"2024-08-18T09:00:00:Z","depth":0,"parameterNumber":2,"parameterNumberName":"U-component_of_WINDS"},"data":[0,0,0,0,0,0,0,0,0,0,0,0,0,0,0,0,0,0,0,0,0,0,0,0,0,0,0,0,0,0,0,0,0,0,0,0,0,0,0,0,0,0,0,0,0,0,0,0,0,0,0,0,0,0,0,0,0,0,1.8034,1.8034,0,1.8056,1.8056,1.8056,1.799,1.7987,1.7985,1.7984,1.8003,1.8006,1.8008,0,0,0,0,0,0,0,0,0,0,0,0,0,1.7932,1.7934,1.8034,1.8034,1.8034,1.8056,1.8056,1.8056,1.799,1.7987,1.7985,1.7983,1.8002,1.8005,1.8008,0,0,0,0,0,0,0,0,0,0,0,0,0,1.7967,1.7935,1.8034,1.8004,1.8001,1.8056,1.8056,1.8056,1.799,1.7987,1.7984,1.7981,1.8001,1.8005,1.8009,1.8092,0,0,1.802,1.8021,0,0,0,0,0,0,0,0,1.7965,1.7971,1.8008,1.8006,1.8003,1.8017,1.8027,1.8068,1.7991,1.7994,1.7983,1.798,1.801,1.8013,1.8023,1.8093,1.8093,1.802,1.8022,1.8024,1.8025,0,0,0,0,0,0,0,1.7963,1.797,1.8042,1.8009,1.8006,1.7988,1.799,1.8035,1.8019,1.7994,1.7989,1.7993,1.8008,1.802,1.8023,1.8094,1.802,1.8023,1.8025,1.8027,1.8231,1.8234,0,0,0,0,0,0,1.7965,1.7968,1.8042,1.8043,1.7977,1.7993,1.7995,1.8015,1.8018,1.8016,1.7995,1.799,1.8015,1.8019,1.8024,1.812,1.8024,1.8027,1.8029,1.8228,1.8232,1.8236,0,0,0,0,0,0,1.7963,1.7972,1.8041,1.8004,1.8012,1.7998,1.8022,1.8018,1.8029,1.8019,1.8016,1.8011,1.8013,1.8019,1.8075,1.812,1.8029,1.8032,1.8224,1.8229,1.8234,1.8314,0,0,0,0,0,0,1.796,1.7972,1.8004,1.8006,1.8014,1.8093,1.8025,1.802,1.8036,1.8029,1.8033,1.803,1.8011,1.807,1.8079,1.8123,1.8035,1.822,1.8227,1.8232,1.8308,1.8322,1.8333,0,0,0,0,0,1.7957,1.8025,1.8006,1.8015,1.8054,1.8095,1.81,1.8077,1.804,1.8071,1.8065,1.803,1.8114,1.8077,1.8086,1.8132,1.8217,1.8225,1.8232,1.8302,1.8319,1.8333,0,0,0,0,0,0,1.8027,1.8025,1.8003,1.8074,1.8086,1.8084,1.8123,1.8096,1.8118,1.811,1.808,1.8081,1.8143,1.8143,1.8101,1.8212,1.8159,1.8169,1.8209,1.8225,1.8238,1.8235,1.8038,0,0,0,0,0,1.8052,1.8087,1.8082,1.8145,1.8152,1.8137,1.8154,1.8136,1.8146,1.815,1.8148,1.8159,1.8187,1.8207,1.8232,1.8308,1.8307,1.8345,1.8357,1.8368,1.8376,1.8415,1.8431,1.826,1.826,1.826,0,0,1.8101,1.8104,1.8127,1.8159,1.8166,1.8202,1.8141,1.8182,1.8208,1.8156,1.8209,1.8208,1.8218,1.8285,1.8314,1.8287,1.8423,1.8377,1.8386,1.8388,1.8424,1.844,1.8455,1.8265,1.8264,1.8263,0,0,1.8209,1.8216,1.8268,1.8277,1.8288,1.8278,1.8291,1.8294,1.8291,1.8345,1.8307,1.8337,1.8387,1.8395,1.8406,1.8519,1.8487,1.8529,1.8595,1.8633,1.8646,1.8658,1.8697,1.8711,1.8537,1.8537,1.8537,0,1.8268,1.8322,1.8299,1.8342,1.8357,1.8313,1.8366,1.8375,1.8394,1.8405,1.8375,1.8437,1.8441,1.8508,1.8535,1.8546,1.8559,1.8527,1.8647,1.8658,1.8669,1.8705,1.872,1.8542,1.8541,1.8541,1.854,0,1.8394,1.8432,1.8473,1.8494,1.8513,1.8561,1.8544,1.8566,1.8547,1.854,1.8594,1.8597,1.8623,1.8638,1.8619,1.8702,1.8685,1.8652,1.8597,1.869,1.8724,1.8738,1.8549,1.8547,1.8546,1.8544,0,0,1.8545,1.8553,1.8568,1.8577,1.8587,1.8615,1.8661,1.8687,1.8706,1.8722,1.8758,1.8803,1.8772,1.8784,1.8766,1.88,1.8887,1.8762,1.8762,1.8784,1.8978,1.9002,1.9018,1.8868,1.887,1.8872,1.8977,0,1.865,1.8729,1.871,1.8788,1.8822,1.8782,1.8822,1.8832,1.8827,1.8854,1.8848,1.8879,1.8837,1.8844,1.8876,1.887,1.8926,1.8863,1.89,1.8901,1.8896,1.9036,1.9061,1.9159,1.899,1.8992,1.8994,0,1.8783,1.8804,1.8886,1.889,1.8904,1.894,1.8962,1.8989,1.9,1.8994,1.9008,1.8984,1.9028,1.8975,1.9035,1.8993,1.9007,1.9007,1.901,1.901,1.8951,1.9038,1.919,1.9204,1.9014,1.9013,1.9011,0,1.8882,1.8932,1.8986,1.8995,1.9003,1.9029,1.9033,1.9041,1.9058,1.9077,1.9087,1.9112,1.9124,1.9143,1.9125,1.9089,1.9188,1.9134,1.9182,1.9183,1.9202,1.9201,1.9356,1.9216,1.9216,1.9215,1.9215,0,1.9,1.9051,1.9031,1.9065,1.9121,1.9098,1.9154,1.9153,1.9161,1.9193,1.916,1.9191,1.9166,1.9195,1.9181,1.9232,1.9238,1.9234,1.9229,1.9235,1.9236,1.9242,1.9234,1.9219,1.9218,1.9218,1.9217,0,1.912,1.9109,1.9166,1.9169,1.9171,1.9212,1.9213,1.9244,1.9237,1.9278,1.9287,1.9275,1.9307,1.9292,1.9325,1.9316,1.9381,1.9368,1.9377,1.9373,1.9421,1.9416,1.9585,1.9605,1.9454,1.9455,1.9456,0,1.9195,1.9233,1.9241,1.926,1.9267,1.9299,1.9317,1.9296,1.9316,1.9331,1.936,1.9389,1.9411,1.9463,1.9457,1.9482,1.9468,1.9526,1.9471,1.9477,1.9467,1.9464,1.9467,1.9536,1.9537,1.9539,1.954,0,1.9328,1.9321,1.9348,1.9373,1.9395,1.9414,1.9429,1.9447,1.9428,1.9451,1.9483,1.95,1.9535,1.9563,1.9585,1.9588,1.9561,1.9558,1.957,1.9575,1.9578,1.9575,1.9404,1.9553,1.9552,1.9551,1.955,1.955,1.9426,1.9458,1.9469,1.9499,1.951,1.9525,1.9554,1.9552,1.9579,1.9605,1.9592,1.963,1.9639,1.9666,1.9673,1.9701,1.9678,1.9696,1.97,1.9704,1.971,1.9576,1.9705,1.9705,1.9704,1.9704,1.9704,0,1.9556,1.9561,1.959,1.9614,1.9638,1.9612,1.9628,1.965,1.9684,1.9695,1.9718,1.9755,1.9783,1.9781,1.9806,1.9829,1.9817,1.9836,1.9833,1.9834,1.973,1.9716,1.9846,1.9846,1.9846,1.9846,1.9846,1.9845,1.9626,1.9679,1.9673,1.9731,1.9735,1.9772,1.9784,1.9797,1.9807,1.985,1.9874,1.9872,1.9878,1.9904,1.9928,1.9926,1.9936,1.996,1.9953,1.9856,1.9841,1.9828,1.9814,1.9963,1.9963,2.0054,2.0055,2.0056]},{"header":{"parameterUnit":"m.s-1","parameterCategory":1,"la1":30.2991,"la2":30.254,"lo1":-89.0895,"lo2":-89.0444,"dy":0.0017,"dx":0.0017,"nx":28,"ny":28,"refTime":"2024-08-18T09:00:00:Z","depth":0,"parameterNumber":3,"parameterNumberName":"V-component_of_WINDS"},"data":[0,0,0,0,0,0,0,0,0,0,0,0,0,0,0,0,0,0,0,0,0,0,0,0,0,0,0,0,0,0,0,0,0,0,0,0,0,0,0,0,0,0,0,0,0,0,0,0,0,0,0,0,0,0,0,0,0,0,-0.097,-0.0969,0,-0.0845,-0.0844,-0.0842,-0.0859,-0.0861,-0.0863,-0.0865,-0.0734,-0.0728,-0.0723,0,0,0,0,0,0,0,0,0,0,0,0,0,-0.1221,-0.1217,-0.097,-0.0969,-0.0967,-0.0846,-0.0844,-0.0842,-0.0858,-0.0861,-0.0863,-0.0866,-0.0735,-0.0729,-0.0723,0,0,0,0,0,0,0,0,0,0,0,0,0,-0.1106,-0.1215,-0.0971,-0.0961,-0.0959,-0.0846,-0.0844,-0.0842,-0.0858,-0.0861,-0.0864,-0.0867,-0.0738,-0.073,-0.0722,-0.061,0,0,-0.0697,-0.0693,0,0,0,0,0,0,0,0,-0.1112,-0.1097,-0.0964,-0.0961,-0.0959,-0.0871,-0.0884,-0.0764,-0.0857,-0.0896,-0.0865,-0.0869,-0.0777,-0.0766,-0.0735,-0.0603,-0.0598,-0.0696,-0.0691,-0.0688,-0.0685,0,0,0,0,0,0,0,-0.112,-0.1102,-0.0921,-0.0962,-0.0959,-0.0962,-0.0949,-0.0861,-0.082,-0.0893,-0.0894,-0.0879,-0.0776,-0.0743,-0.0732,-0.0596,-0.0696,-0.0689,-0.0684,-0.0681,-0.0367,-0.0363,0,0,0,0,0,0,-0.1131,-0.1109,-0.0925,-0.0917,-0.1045,-0.0955,-0.0941,-0.0896,-0.0821,-0.0813,-0.0877,-0.088,-0.0755,-0.0742,-0.0728,-0.0591,-0.0688,-0.068,-0.0676,-0.037,-0.0366,-0.0362,0,0,0,0,0,0,-0.1137,-0.1115,-0.093,-0.1013,-0.099,-0.0947,-0.0897,-0.0892,-0.0859,-0.0809,-0.0802,-0.085,-0.0757,-0.0739,-0.0639,-0.0587,-0.0677,-0.0669,-0.0374,-0.0369,-0.0364,-0.0317,0,0,0,0,0,0,-0.1144,-0.1117,-0.1074,-0.1012,-0.0985,-0.0843,-0.0894,-0.0887,-0.0845,-0.0849,-0.0783,-0.0775,-0.0758,-0.0651,-0.0631,-0.0577,-0.0663,-0.0378,-0.0372,-0.0366,-0.0323,-0.0311,-0.03,0,0,0,0,0,-0.1153,-0.1065,-0.1071,-0.1049,-0.0931,-0.084,-0.0825,-0.0809,-0.0841,-0.0797,-0.0766,-0.0777,-0.0597,-0.0641,-0.0618,-0.0561,-0.0382,-0.0374,-0.0366,-0.0328,-0.0313,-0.03,0,0,0,0,0,0,-0.1119,-0.1056,-0.1063,-0.0953,-0.0902,-0.0843,-0.0787,-0.0794,-0.0732,-0.0738,-0.072,-0.0705,-0.0603,-0.0573,-0.0623,-0.0449,-0.0493,-0.0481,-0.0472,-0.0457,-0.0446,-0.0455,-0.0656,0,0,0,0,0,-0.11,-0.1032,-0.0981,-0.0888,-0.0863,-0.083,-0.079,-0.0782,-0.0728,-0.0706,-0.0667,-0.0614,-0.0546,-0.05,-0.0434,-0.032,-0.0305,-0.027,-0.0258,-0.0249,-0.0237,-0.0174,-0.0157,-0.0336,-0.0336,-0.0336,0,0,-0.1057,-0.1014,-0.0972,-0.088,-0.084,-0.077,-0.0811,-0.0735,-0.0682,-0.0694,-0.0597,-0.0567,-0.0507,-0.0399,-0.035,-0.037,-0.0186,-0.0239,-0.0232,-0.0225,-0.0164,-0.0147,-0.0132,-0.0331,-0.0332,-0.0333,0,0,-0.0943,-0.0905,-0.0823,-0.0783,-0.0722,-0.0702,-0.0682,-0.0623,-0.0604,-0.0507,-0.0515,-0.0452,-0.0334,-0.0291,-0.0253,-0.0126,-0.0134,-0.0106,-0.0045,0.0016,0.003,0.0043,0.009,0.0106,-0.0095,-0.0095,-0.0094,0,-0.0897,-0.0792,-0.078,-0.0703,-0.0662,-0.0673,-0.059,-0.0551,-0.0471,-0.0442,-0.0468,-0.0321,-0.0281,-0.0163,-0.0132,-0.0102,-0.0078,-0.0111,0.0027,0.004,0.0052,0.0097,0.0114,-0.0091,-0.0092,-0.0092,-0.0092,0,-0.0739,-0.0666,-0.0608,-0.0532,-0.0485,-0.0405,-0.0381,-0.0334,-0.0332,-0.0308,-0.021,-0.0163,-0.0088,-0.006,-0.0056,0.0059,0.0044,0.0023,-0.0021,0.0072,0.0115,0.0132,-0.0087,-0.0088,-0.0089,-0.009,0,0,-0.0596,-0.0518,-0.0496,-0.0462,-0.0397,-0.034,-0.0262,-0.019,-0.015,-0.0096,-0.0029,0.007,0.005,0.0092,0.01,0.0154,0.0253,0.0126,0.0128,0.015,0.0383,0.0401,0.0421,0.0247,0.025,0.0252,0.0379,0,-0.0474,-0.0336,-0.0324,-0.0199,-0.0132,-0.0142,-0.0074,-0.0026,-0.0003,0.0058,0.0084,0.0154,0.0122,0.0147,0.0199,0.023,0.0301,0.022,0.0311,0.0314,0.0299,0.0443,0.0462,0.058,0.0396,0.0398,0.04,0,-0.0313,-0.0255,-0.0124,-0.007,-0.0041,0.002,0.0087,0.0145,0.0198,0.0211,0.0257,0.0257,0.0338,0.0289,0.0401,0.0347,0.0384,0.0404,0.0409,0.0421,0.0365,0.0461,0.0617,0.0636,0.0426,0.0424,0.0422,0,-0.022,-0.011,-0.0017,0.0012,0.0077,0.012,0.015,0.0199,0.0242,0.0299,0.0327,0.0394,0.0431,0.0483,0.0501,0.0463,0.0614,0.0565,0.0628,0.0628,0.0663,0.0662,0.0831,0.0683,0.0682,0.0682,0.0682,0,-0.0083,-0.0002,0.0025,0.0083,0.0173,0.0185,0.0275,0.0302,0.0346,0.0409,0.0403,0.0462,0.0481,0.0544,0.0558,0.065,0.0666,0.068,0.0684,0.0683,0.0681,0.071,0.0703,0.0687,0.0686,0.0685,0.0684,0,0.0038,0.0059,0.016,0.0212,0.0227,0.0292,0.0337,0.0392,0.0412,0.0492,0.0511,0.0545,0.0618,0.064,0.0728,0.0738,0.0846,0.0841,0.0828,0.083,0.0892,0.0887,0.1088,0.1115,0.0946,0.0948,0.0949,0,0.0125,0.0187,0.0245,0.0286,0.0317,0.0383,0.0426,0.0439,0.0484,0.0547,0.0595,0.0667,0.0726,0.0843,0.0876,0.0943,0.0941,0.1006,0.0951,0.0948,0.0945,0.0942,0.0949,0.1018,0.102,0.1021,0.1022,0,0.0279,0.0286,0.0346,0.0411,0.0461,0.0513,0.0562,0.0596,0.0617,0.0667,0.0741,0.0786,0.0875,0.0947,0.1015,0.1045,0.1039,0.1039,0.1057,0.1058,0.1049,0.1057,0.086,0.1035,0.1034,0.1033,0.1032,0.1032,0.0388,0.0442,0.0491,0.0559,0.0597,0.0643,0.0697,0.0724,0.0785,0.0859,0.0862,0.0943,0.0993,0.1083,0.1116,0.118,0.1161,0.1187,0.1195,0.1202,0.1208,0.1036,0.1192,0.1192,0.1191,0.1191,0.1191,0,0.0542,0.0573,0.0634,0.0703,0.0756,0.0742,0.0795,0.0841,0.0912,0.0958,0.1015,0.11,0.1169,0.1205,0.1274,0.1318,0.1316,0.1336,0.1334,0.1342,0.122,0.1198,0.1336,0.1336,0.1336,0.1336,0.1336,0.1336,0.063,0.0721,0.0733,0.0844,0.0873,0.0951,0.0983,0.1026,0.1063,0.1158,0.1214,0.1237,0.128,0.1351,0.1414,0.1422,0.1449,0.1471,0.1478,0.1365,0.135,0.1336,0.1316,0.1476,0.1476,0.1595,0.1596,0.1597]}]]